Weather History for Troy, MI

Change the Weather History Date:

Thursday, May 15, 2014

  Actual Average (KDET) Record (KDET)
Temperature  
Mean Temperature 53 °F -  
Max Temperature 62 °F 69 °F 92 °F (1962)
Min Temperature 44 °F 50 °F 39 °F (1973)
Degree Days  
Heating Degree Days 12    
Growing Degree Days 3 (Base 50)    
Moisture  
Dew Point 48 °F    
Average Humidity 89    
Maximum Humidity 100    
Minimum Humidity 72    
Precipitation  
Precipitation 0.00 in - - ()
Sea Level Pressure  
Sea Level Pressure 29.83 in    
Wind  
Wind Speed 8 mph (WNW)    
Max Wind Speed 18 mph    
Max Gust Speed 25 mph    
Visibility 8 miles    
Events Rain    
Averages and records for this station are not official NWS values.
T = Trace of Precipitation, MM = Missing Value Source: NWS Daily Summary

Daily Weather History Graph

Daily Weather History Graph

Search for Another Location

Airport:

Trip Planner

Search our weather history database for the weather conditions in past years. The results will help you decide how hot, cold, wet, or windy it might be!

Date:

Astronomy

May. 15, 2014 Rise Set
Actual Time 6:10 AM EDT 8:47 PM EDT
Civil Twilight 5:38 AM EDT 9:20 PM EDT
Nautical Twilight 4:58 AM EDT 10:01 PM EDT
Astronomical Twilight 4:12 AM EDT 10:47 PM EDT
Moon 9:54 PM EDT (5/15) 6:57 AM EDT (5/15)
Length of Visible Light 15h 41m
Length of Day
14h 37m
Full, 99% of the Moon is Illuminated
May 15
Full
May 21
Last Quarter
May 28
New
Jun 5
First Quarter
Jun 13
Full

Hourly Weather History & Observations

Time (EDT) Temp. Windchill Dew Point Humidity Pressure Visibility Wind Dir Wind Speed Gust Speed Precip Events Conditions
12:14 AM 47.7 °F - 45.5 °F 92% 29.98 in 7.0 mi NNE 9.2 mph - N/A Rain Rain
12:35 AM 47.7 °F - 46.0 °F 94% 29.95 in 10.0 mi NE 6.9 mph - N/A Rain Rain
12:55 AM 47.7 °F - 46.4 °F 95% 29.93 in 10.0 mi NNE 8.1 mph - N/A Rain Light Rain
1:14 AM 47.7 °F - 46.4 °F 95% 29.96 in 10.0 mi WNW 6.9 mph 19.6 mph N/A Rain Rain
1:35 AM 47.8 °F - 46.6 °F 95% 29.93 in 10.0 mi NE 12.7 mph - N/A Rain Light Rain
1:55 AM 47.8 °F - 46.8 °F 96% 29.91 in 10.0 mi NE 11.5 mph - N/A Rain Rain
2:15 AM 48.2 °F - 47.3 °F 97% 29.90 in 10.0 mi ENE 12.7 mph - N/A Rain Light Rain
2:35 AM 48.2 °F - 47.3 °F 97% 29.90 in 10.0 mi NE 5.8 mph - N/A   Drizzle
2:55 AM 47.8 °F - 47.3 °F 98% 29.89 in 7.0 mi NNE 4.6 mph - N/A Rain Light Rain
3:15 AM 47.7 °F - 47.1 °F 98% 29.87 in 5.0 mi NNE 8.1 mph 16.1 mph N/A Rain Rain
3:35 AM 47.3 °F - 46.6 °F 97% 29.87 in 7.0 mi East 4.6 mph - N/A Rain Light Rain
3:54 AM 47.3 °F - 46.8 °F 98% 29.85 in 10.0 mi NNE 8.1 mph 16.1 mph N/A Rain Light Rain
4:15 AM 47.3 °F - 46.8 °F 98% 29.83 in 7.0 mi NNE 5.8 mph - N/A Rain Light Rain
4:35 AM 47.3 °F - 46.6 °F 97% 29.81 in 10.0 mi NE 4.6 mph - N/A   Light Drizzle
4:55 AM 47.3 °F - 46.6 °F 97% 29.80 in 10.0 mi ENE 8.1 mph - N/A Rain Rain
5:15 AM 46.9 °F - 46.4 °F 98% 29.80 in 7.0 mi NE 5.8 mph - N/A Rain Rain
5:35 AM 46.4 °F 43.5 °F 45.9 °F 98% 29.80 in 10.0 mi ENE 5.8 mph - N/A   Drizzle
5:55 AM 46.4 °F 43.5 °F 45.9 °F 98% 29.79 in 7.0 mi NE 5.8 mph 9.2 mph N/A Rain Light Rain
6:15 AM 46.4 °F 42.9 °F 46.0 °F 99% 29.78 in 7.0 mi ENE 6.9 mph - N/A   Drizzle
6:35 AM 46.6 °F - 46.2 °F 99% 29.77 in 5.0 mi ENE 9.2 mph - N/A Rain Rain
6:55 AM 47.1 °F - 46.6 °F 98% 29.77 in 3.0 mi ENE 6.9 mph - N/A   Drizzle
7:14 AM 47.3 °F - 46.8 °F 98% 29.76 in 2.5 mi ENE 6.9 mph - N/A   Drizzle
7:35 AM 47.5 °F - 47.3 °F 99% 29.75 in 2.0 mi ENE 4.6 mph - N/A Rain Rain
7:55 AM 48.2 °F - 48.0 °F 99% 29.74 in 2.0 mi ENE 4.6 mph - N/A   Light Drizzle
8:15 AM 49.1 °F - 48.9 °F 99% 29.73 in 1.8 mi ENE 4.6 mph - N/A Rain Light Rain
8:35 AM 50.2 °F - 50.0 °F 99% 29.72 in 1.8 mi ENE 3.5 mph - N/A Rain Light Rain
8:54 AM 51.3 °F - 51.1 °F 99% 29.71 in 1.8 mi Calm Calm - N/A Rain Light Rain
9:15 AM 52.9 °F - 52.7 °F 99% 29.70 in 1.2 mi East 3.5 mph - N/A Rain Rain
9:35 AM 57.2 °F - 57.0 °F 99% 29.70 in 1.5 mi SSE 8.1 mph - N/A Rain Rain
9:55 AM 60.8 °F - 60.8 °F 100% 29.69 in 2.0 mi South 13.8 mph 20.7 mph N/A Rain Rain
10:15 AM 61.7 °F - 61.7 °F 100% 29.69 in 5.0 mi South 10.4 mph 17.3 mph N/A Rain Light Rain
10:35 AM 62.1 °F - 61.9 °F 99% 29.70 in 3.0 mi WSW 13.8 mph 20.7 mph N/A   Heavy Drizzle
10:55 AM 58.5 °F - 57.7 °F 97% 29.70 in 4.0 mi WNW 4.6 mph - N/A Rain Light Rain
11:15 AM 58.3 °F - 57.0 °F 96% 29.70 in 10.0 mi WNW 3.5 mph - N/A   Overcast
11:34 AM 58.1 °F - 56.3 °F 94% 29.70 in 10.0 mi WNW 3.5 mph - N/A   Overcast
11:55 AM 59.2 °F - 57.4 °F 94% 29.70 in 10.0 mi West 4.6 mph - N/A   Mostly Cloudy
12:15 PM 59.7 °F - 57.9 °F 94% 29.72 in 10.0 mi WSW 5.8 mph - N/A Rain Light Rain
12:34 PM 60.8 °F - 58.6 °F 93% 29.71 in 10.0 mi WSW 6.9 mph - N/A   Overcast
12:55 PM 59.9 °F - 57.6 °F 92% 29.72 in 10.0 mi SSW 11.5 mph - N/A   Overcast
1:15 PM 58.3 °F - 55.9 °F 92% 29.75 in 10.0 mi SSW 12.7 mph 20.7 mph N/A   Overcast
1:35 PM 56.8 °F - 54.3 °F 91% 29.75 in 10.0 mi SW 15.0 mph 23.0 mph N/A   Overcast
1:55 PM 56.7 °F - 53.4 °F 89% 29.76 in 10.0 mi SW 11.5 mph 21.9 mph N/A   Overcast
2:15 PM 56.7 °F - 52.0 °F 84% 29.77 in 10.0 mi SW 18.4 mph 25.3 mph N/A   Overcast
3:14 PM 55.6 °F - 50.2 °F 82% 29.80 in 10.0 mi SW 12.7 mph 19.6 mph N/A   Overcast
3:35 PM 54.9 °F - 48.9 °F 80% 29.80 in 10.0 mi WSW 13.8 mph 19.6 mph N/A   Overcast
3:55 PM 54.7 °F - 47.7 °F 77% 29.80 in 10.0 mi WSW 10.4 mph - N/A   Overcast
4:15 PM 55.0 °F - 48.0 °F 77% 29.82 in 10.0 mi West 11.5 mph 19.6 mph N/A   Overcast
4:35 PM 54.3 °F - 48.0 °F 79% 29.82 in 10.0 mi West 9.2 mph - N/A   Overcast
4:54 PM 54.5 °F - 47.5 °F 77% 29.83 in 10.0 mi West 8.1 mph 17.3 mph N/A   Overcast
5:15 PM 54.3 °F - 46.8 °F 76% 29.85 in 10.0 mi West 12.7 mph 17.3 mph N/A   Overcast
5:35 PM 52.0 °F - 45.9 °F 80% 29.86 in 10.0 mi West 6.9 mph - N/A   Overcast
5:54 PM 52.7 °F - 45.3 °F 76% 29.87 in 10.0 mi West 10.4 mph 17.3 mph N/A   Overcast
6:15 PM 52.3 °F - 44.4 °F 74% 29.87 in 10.0 mi West 9.2 mph 16.1 mph N/A   Overcast
6:35 PM 51.4 °F - 44.4 °F 77% 29.87 in 10.0 mi West 11.5 mph - N/A   Overcast
6:54 PM 51.4 °F - 44.1 °F 76% 29.88 in 10.0 mi West 10.4 mph 19.6 mph N/A   Overcast
7:15 PM 50.9 °F - 43.0 °F 74% 29.89 in 10.0 mi West 9.2 mph 17.3 mph N/A   Overcast
7:35 PM 50.9 °F - 42.8 °F 74% 29.90 in 10.0 mi West 9.2 mph - N/A   Overcast
7:55 PM 50.2 °F - 41.4 °F 72% 29.91 in 10.0 mi West 10.4 mph 17.3 mph N/A   Overcast
8:15 PM 49.6 °F - 41.9 °F 75% 29.93 in 10.0 mi West 10.4 mph 17.3 mph N/A   Overcast
8:35 PM 48.4 °F - 42.1 °F 79% 29.94 in 10.0 mi West 11.5 mph 17.3 mph N/A   Overcast
8:55 PM 46.9 °F - 42.4 °F 84% 29.95 in 10.0 mi West 6.9 mph 17.3 mph N/A   Overcast
9:15 PM 46.8 °F - 40.8 °F 80% 29.96 in 10.0 mi West 11.5 mph 17.3 mph N/A   Overcast
9:35 PM 46.4 °F 41.5 °F 40.3 °F 79% 29.97 in 10.0 mi West 10.4 mph - N/A   Overcast
9:54 PM 46.4 °F 40.4 °F 38.3 °F 73% 29.98 in 10.0 mi West 13.8 mph 20.7 mph N/A   Overcast
10:15 PM 45.9 °F 42.3 °F 38.1 °F 74% 29.98 in 10.0 mi West 6.9 mph - N/A   Overcast
10:35 PM 45.7 °F 39.8 °F 38.3 °F 75% 29.98 in 10.0 mi WNW 12.7 mph 17.3 mph N/A   Overcast
10:55 PM 45.0 °F 39.3 °F 37.4 °F 75% 29.99 in 10.0 mi West 11.5 mph 16.1 mph N/A   Overcast
11:15 PM 44.6 °F 38.8 °F 37.4 °F 76% 29.99 in 10.0 mi West 11.5 mph 18.4 mph N/A   Overcast
11:35 PM 44.6 °F 39.7 °F 36.0 °F 72% 29.99 in 10.0 mi WNW 9.2 mph 18.4 mph N/A   Overcast
11:55 PM 44.2 °F 40.3 °F 35.8 °F 72% 29.99 in 10.0 mi WNW 6.9 mph - N/A   Overcast